{"data":{"norad_id":36592,"intl_designator":"2010-025A","name":"BADR-5","alt_names":[],"object_type":"PAYLOAD","status":"ACTIVE","operator":null,"country":"AB","launch_date":"2010-06-03","launch_site_code":"TYMSC","launch_vehicle":null,"mission":null,"orbit_class":"UNKNOWN","rcs_meters":15.8489,"size_class":null,"mass_kg":null,"dimensions":null,"purposes":["comms"],"wikipedia_slug":null,"has_3d_model":false,"image_url":null,"decayed_at":null,"tle_current":{"epoch":"2026-09-20T03:22:49.774368Z","epoch_age_seconds":49330,"freshness":"FRESH","line1":"1 36592U 10025A   26263.14085387  .00000149  00000+0  00000+0 0  9990","line2":"2 36592   0.0434 127.7982 0007706  86.0488 226.4318  1.00269290 54169","mean_motion":1.0026929,"eccentricity":0.0007706,"inclination_deg":0.0434,"raan_deg":127.7982,"arg_perigee_deg":86.0488,"mean_anomaly_deg":226.4318,"bstar":0,"rev_number":5416,"period_min":1436.132638418,"perigee_km":35754.801733317,"apogee_km":35819.787096213,"semimajor_km":42165.431414765,"source":"CELESTRAK","updated_at":"2026-09-20T09:00:35.163834Z"}}}